DW8356 Weather Reports


Display with metric or nautical units.
time (UTC)temp
F
wind
direction
speed
MPH
gust
MPH
rain 1hr
in
rain 24hr
in
rain mn
in
humidity
%
barometer
mb
20260904002024 87 198 2.0 9.0 0.00 0.00 0.00 62 1012.1
20260904001548 87 167 4.0 9.0 0.00 0.00 0.00 62 1012.0
20260904001023 87 230 3.0 9.0 0.00 0.00 0.00 63 1012.1
20260904000526 87 167 3.0 8.0 0.00 0.00 0.00 62 1012.0
20260904000044 88 136 2.0 10.0 0.00 0.00 0.00 62 1012.1
20260903235522 88 168 2.0 10.0 0.00 0.00 0.00 62 1012.0
20260903235022 88 196 3.0 9.0 0.00 0.00 0.00 60 1011.9
20260903234542 88 187 2.0 11.0 0.00 0.00 0.00 60 1011.8
20260903234024 88 198 3.0 11.0 0.00 0.00 0.00 60 1011.8
20260903233525 89 219 3.0 12.0 0.00 0.00 0.00 59 1011.7
20260903233058 89 155 2.0 12.0 0.00 0.00 0.00 58 1011.6
20260903232524 89 168 3.0 10.0 0.00 0.00 0.00 58 1011.6
20260903232024 89 174 3.0 10.0 0.00 0.00 0.00 58 1011.6
20260903231545 90 69 2.0 10.0 0.00 0.00 0.00 57 1011.6
20260903231023 90 0 3.0 11.0 0.00 0.00 0.00 57 1011.6
20260903230523 91 167 3.0 11.0 0.00 0.00 0.00 56 1011.8
20260903230049 91 171 2.0 11.0 0.00 0.00 0.00 57 1011.7
20260903225523 90 121 3.0 9.0 0.00 0.00 0.00 56 1011.6
20260903225023 90 139 2.0 10.0 0.00 0.00 0.00 56 1011.5
20260903224546 91 183 3.0 10.0 0.00 0.00 0.00 55 1011.6
20260903224024 92 174 1.0 11.0 0.00 0.00 0.00 55 1011.5
20260903223524 92 165 3.0 11.0 0.00 0.00 0.00 55 1011.6
20260903223053 91 148 3.0 9.0 0.00 0.00 0.00 55 1011.5
20260903222523 92 147 3.0 10.0 0.00 0.00 0.00 55 1011.5
20260903222025 92 180 3.0 16.0 0.00 0.00 0.00 55 1011.4
20260903221541 92 149 4.0 16.0 0.00 0.00 0.00 55 1011.4
20260903221020 92 162 3.0 11.0 0.00 0.00 0.00 55 1011.4
20260903220524 92 226 4.0 9.0 0.00 0.00 0.00 55 1011.4
20260903220114 91 171 2.0 10.0 0.00 0.00 0.00 56 1011.5
20260903215527 92 161 3.0 11.0 0.00 0.00 0.00 56 1011.5
20260903215023 92 206 3.0 11.0 0.00 0.00 0.00 56 1011.6
20260903214546 92 141 3.0 15.0 0.00 0.00 0.00 56 1011.7
20260903214027 92 200 4.0 15.0 0.00 0.00 0.00 56 1011.7
20260903213529 92 200 3.0 8.0 0.00 0.00 0.00 56 1011.8
20260903213042 92 126 3.0 12.0 0.00 0.00 0.00 55 1011.8
20260903212521 92 162 1.0 12.0 0.00 0.00 0.00 55 1011.9
20260903212024 92 141 2.0 9.0 0.00 0.00 0.00 55 1011.9
20260903211543 92 209 2.0 9.0 0.00 0.00 0.00 57 1012.0
20260903211025 92 142 4.0 9.0 0.00 0.00 0.00 56 1011.9
20260903210524 92 214 1.0 12.0 0.00 0.00 0.00 57 1011.9
20260903210051 92 173 3.0 14.0 0.00 0.00 0.00 56 1011.9
20260903205523 92 171 3.0 14.0 0.00 0.00 0.00 57 1012.0
20260903205019 91 211 4.0 15.0 0.00 0.00 0.00 57 1012.0
20260903204542 91 209 3.0 15.0 0.00 0.00 0.00 58 1012.1
20260903204024 93 194 4.0 10.0 0.00 0.00 0.00 56 1012.3
20260903203522 93 185 3.0 9.0 0.00 0.00 0.00 57 1012.4
20260903203048 92 154 1.0 8.0 0.00 0.00 0.00 58 1012.5
20260903202524 91 174 2.0 8.0 0.00 0.00 0.00 59 1012.5
20260903202025 90 143 3.0 9.0 0.00 0.00 0.00 61 1012.7
20260903201548 89 205 3.0 15.0 0.00 0.00 0.00 61 1012.7
20260903201028 89 342 2.0 15.0 0.00 0.00 0.00 62 1012.8
20260903200523 89 219 3.0 9.0 0.00 0.00 0.00 63 1012.8
20260903200044 88 167 3.0 9.0 0.00 0.00 0.00 64 1012.8
20260903195523 87 189 2.0 13.0 0.00 0.00 0.00 65 1012.8
20260903195027 87 181 5.0 13.0 0.00 0.00 0.00 64 1012.8
20260903194542 87 171 2.0 10.0 0.00 0.00 0.00 65 1012.8
20260903194028 87 188 1.0 9.0 0.00 0.00 0.00 66 1012.9
20260903193524 87 61 2.0 9.0 0.00 0.00 0.00 65 1012.9
20260903193048 86 173 2.0 9.0 0.00 0.00 0.00 66 1013.0
20260903192527 86 206 2.0 14.0 0.00 0.00 0.00 67 1013.0
20260903192024 86 161 4.0 14.0 0.00 0.00 0.00 66 1013.1
20260903191546 86 101 3.0 7.0 0.00 0.00 0.00 66 1013.2
20260903191025 86 148 1.0 14.0 0.00 0.00 0.00 67 1013.3
20260903190521 87 223 3.0 14.0 0.00 0.00 0.00 67 1013.3
20260903190044 87 182 3.0 11.0 0.00 0.00 0.00 67 1013.5
20260903185523 86 202 3.0 11.0 0.00 0.00 0.00 68 1013.5
20260903185024 86 141 3.0 11.0 0.00 0.00 0.00 68 1013.6
20260903184549 86 162 2.0 11.0 0.00 0.00 0.00 68 1013.7
20260903184028 86 152 2.0 13.0 0.00 0.00 0.00 69 1013.8
20260903183524 86 167 4.0 13.0 0.00 0.00 0.00 69 1013.8
20260903183048 85 193 3.0 10.0 0.00 0.00 0.00 70 1013.9
20260903182528 85 163 3.0 15.0 0.00 0.00 0.00 70 1013.9
20260903182024 85 184 5.0 15.0 0.00 0.00 0.00 70 1014.0
20260903181544 85 186 3.0 11.0 0.00 0.00 0.00 71 1014.0
20260903181023 85 161 2.0 11.0 0.00 0.00 0.00 71 1014.1
20260903180522 84 194 2.0 10.0 0.00 0.00 0.00 73 1014.1
20260903180049 84 183 4.0 12.0 0.00 0.00 0.00 74 1014.2
20260903175522 83 157 4.0 12.0 0.00 0.00 0.00 74 1014.2
20260903175023 83 137 3.0 10.0 0.00 0.00 0.00 74 1014.2
20260903174542 83 153 2.0 10.0 0.00 0.00 0.00 74 1014.3
20260903174027 84 134 3.0 9.0 0.00 0.00 0.00 74 1014.4
20260903173529 84 163 3.0 11.0 0.00 0.00 0.00 74 1014.4
20260903173047 84 180 3.0 12.0 0.00 0.00 0.00 75 1014.3
20260903172525 83 168 2.0 12.0 0.00 0.00 0.00 76 1014.3
20260903172026 83 148 3.0 10.0 0.00 0.00 0.00 76 1014.4
20260903171549 83 173 3.0 10.0 0.00 0.00 0.00 77 1014.4
20260903171023 83 162 2.0 9.0 0.00 0.00 0.00 76 1014.5
20260903170523 83 151 2.0 11.0 0.00 0.00 0.00 76 1014.5
20260903170046 83 206 4.0 11.0 0.00 0.00 0.00 76 1014.4
20260903165529 83 192 1.0 11.0 0.00 0.00 0.00 77 1014.4
20260903165029 83 141 3.0 11.0 0.00 0.00 0.00 78 1014.3
20260903164548 83 167 2.0 12.0 0.00 0.00 0.00 78 1014.4
20260903164025 83 186 3.0 12.0 0.00 0.00 0.00 78 1014.3
20260903163525 83 139 1.0 6.0 0.00 0.00 0.00 78 1014.3
20260903163044 83 181 1.0 7.0 0.00 0.00 0.00 78 1014.3
20260903162520 83 138 0.0 7.0 0.00 0.00 0.00 80 1014.3
20260903162024 83 64 2.0 6.0 0.00 0.00 0.00 79 1014.3
20260903161543 83 184 1.0 7.0 0.00 0.00 0.00 79 1014.2
20260903161022 82 0 1.0 10.0 0.00 0.00 0.00 80 1014.2
20260903160525 82 134 2.0 10.0 0.00 0.00 0.00 80 1014.2
20260903160047 82 185 3.0 9.0 0.00 0.00 0.00 81 1014.2
20260903155525 82 207 3.0 9.0 0.00 0.00 0.00 82 1014.2
20260903155025 81 169 1.0 5.0 0.00 0.00 0.00 82 1014.2
20260903154546 81 185 1.0 7.0 0.00 0.00 0.00 82 1014.1
20260903154027 81 175 3.0 7.0 0.00 0.00 0.00 82 1014.2
20260903153525 81 202 2.0 5.0 0.00 0.00 0.00 82 1014.2
20260903153050 81 174 1.0 6.0 0.00 0.00 0.00 82 1014.2
20260903152523 81 162 1.0 6.0 0.00 0.00 0.00 82 1014.1
20260903152026 81 156 1.0 5.0 0.00 0.00 0.00 82 1014.1
20260903151550 81 168 2.0 9.0 0.00 0.00 0.00 82 1014.1
20260903151025 81 0 2.0 9.0 0.00 0.00 0.00 82 1014.0
20260903150525 81 182 2.0 7.0 0.00 0.00 0.00 83 1014.1
20260903150106 81 182 1.0 8.0 0.00 0.00 0.00 83 1014.1
20260903145525 81 194 2.0 9.0 0.00 0.00 0.00 83 1014.2
20260903145025 80 213 3.0 9.0 0.00 0.00 0.00 83 1014.1
20260903144543 80 217 2.0 7.0 0.00 0.00 0.00 84 1014.2
20260903144027 80 167 2.0 7.0 0.00 0.00 0.00 85 1014.2
20260903143522 80 0 0.0 5.0 0.00 0.00 0.00 85 1014.2
20260903143045 80 145 0.0 6.0 0.00 0.00 0.00 85 1014.2
20260903142527 79 157 1.0 6.0 0.00 0.00 0.00 86 1014.3
20260903142027 79 123 2.0 6.0 0.00 0.00 0.00 86 1014.2
20260903141547 79 172 1.0 5.0 0.00 0.00 0.00 87 1014.3
20260903141024 79 169 1.0 9.0 0.00 0.00 0.00 87 1014.4
20260903140525 79 178 3.0 9.0 0.00 0.00 0.00 87 1014.4
20260903140048 79 155 2.0 9.0 0.00 0.00 0.00 87 1014.4
20260903135525 79 192 1.0 10.0 0.00 0.00 0.00 88 1014.3
20260903135021 78 198 1.0 10.0 0.00 0.00 0.00 88 1014.2
20260903134550 78 200 2.0 10.0 0.00 0.00 0.00 88 1014.2
20260903134024 78 195 0.0 7.0 0.00 0.00 0.00 88 1014.3
20260903133524 78 186 2.0 7.0 0.00 0.00 0.00 88 1014.2
20260903133042 78 138 2.0 5.0 0.00 0.00 0.00 88 1014.1
20260903132524 78 149 0.0 4.0 0.00 0.00 0.00 88 1014.2
20260903132024 78 190 1.0 7.0 0.00 0.00 0.00 88 1014.1
20260903131548 77 201 1.0 7.0 0.00 0.00 0.00 88 1014.1
20260903131024 77 207 1.0 6.0 0.00 0.00 0.00 88 1014.0
20260903130527 77 158 2.0 6.0 0.00 0.00 0.00 88 1013.9
20260903130045 77 162 1.0 5.0 0.00 0.00 0.00 89 1013.9
20260903125525 77 154 1.0 6.0 0.00 0.00 0.00 89 1013.8
20260903125024 77 137 1.0 5.0 0.00 0.00 0.00 89 1013.9
20260903124553 77 0 0.0 4.0 0.00 0.00 0.00 89 1014.0
20260903124022 77 180 0.0 5.0 0.00 0.00 0.00 89 1014.0
20260903123523 77 177 0.0 6.0 0.00 0.00 0.00 89 1013.8
20260903123042 77 0 1.0 6.0 0.00 0.00 0.00 89 1013.8
20260903122523 77 0 1.0 7.0 0.00 0.00 0.00 89 1013.8
20260903122024 77 178 3.0 7.0 0.00 0.00 0.00 89 1013.7
20260903121540 77 178 1.0 6.0 0.00 0.00 0.00 89 1013.7
20260903121027 77 203 2.0 8.0 0.00 0.00 0.00 89 1013.7
20260903120527 76 0 1.0 8.0 0.00 0.00 0.00 89 1013.7
20260903120054 76 164 2.0 7.0 0.00 0.00 0.00 89 1013.7
20260903115524 76 0 1.0 6.0 0.00 0.00 0.00 89 1013.6
20260903115024 76 100 1.0 6.0 0.00 0.00 0.00 89 1013.4
20260903114542 76 94 1.0 6.0 0.00 0.00 0.00 89 1013.4
20260903114021 76 158 0.0 6.0 0.00 0.00 0.00 89 1013.5
20260903113521 76 186 2.0 6.0 0.00 0.00 0.00 89 1013.5
20260903113047 76 159 0.0 4.0 0.00 0.00 0.00 89 1013.5
20260903112524 76 0 0.0 4.0 0.00 0.00 0.00 89 1013.4
20260903112025 76 211 0.0 5.0 0.00 0.00 0.00 89 1013.3
20260903111546 76 186 0.0 5.0 0.00 0.00 0.00 89 1013.4
20260903111024 76 188 1.0 5.0 0.00 0.00 0.00 88 1013.5
20260903110522 77 0 1.0 6.0 0.00 0.00 0.00 88 1013.5
20260903110043 76 198 1.0 6.0 0.00 0.00 0.00 88 1013.5
20260903105523 76 159 1.0 5.0 0.00 0.00 0.00 88 1013.5
20260903105024 76 128 1.0 5.0 0.00 0.00 0.00 88 1013.4
20260903104541 77 178 0.0 5.0 0.00 0.00 0.00 88 1013.4
20260903104026 76 0 1.0 6.0 0.00 0.00 0.00 88 1013.3
20260903103523 76 157 1.0 8.0 0.00 0.00 0.00 88 1013.2
20260903103043 76 172 2.0 8.0 0.00 0.00 0.00 89 1013.2
20260903102524 77 139 2.0 6.0 0.00 0.00 0.00 89 1013.2
20260903102026 77 175 0.0 6.0 0.00 0.00 0.00 89 1013.2
20260903101547 77 0 0.0 6.0 0.00 0.00 0.00 89 1013.2
20260903101022 77 183 2.0 6.0 0.00 0.00 0.00 90 1013.2
20260903100524 76 158 0.0 2.0 0.00 0.00 0.00 90 1013.1
20260903100047 76 0 0.0 2.0 0.00 0.00 0.00 90 1013.1
20260903095527 76 0 0.0 1.0 0.00 0.00 0.00 90 1013.1
20260903095019 76 0 0.0 5.0 0.00 0.00 0.00 90 1013.2
20260903094556 76 0 0.0 5.0 0.00 0.00 0.00 90 1013.3
20260903094022 76 126 0.0 4.0 0.00 0.00 0.00 90 1013.3
20260903093521 76 163 0.0 1.0 0.00 0.00 0.00 90 1013.3
20260903093040 76 0 0.0 1.0 0.00 0.00 0.00 90 1013.3
20260903092524 76 165 0.0 1.0 0.00 0.00 0.00 90 1013.3
20260903092021 76 0 0.0 2.0 0.00 0.00 0.00 90 1013.3
20260903091556 76 0 0.0 2.0 0.00 0.00 0.00 90 1013.3
20260903091025 76 162 0.0 4.0 0.00 0.00 0.00 90 1013.3
20260903090523 76 0 1.0 4.0 0.00 0.00 0.00 90 1013.3
20260903090045 76 0 0.0 4.0 0.00 0.00 0.00 89 1013.3
20260903085524 76 178 1.0 3.0 0.00 0.00 0.00 89 1013.2
20260903085027 76 0 1.0 4.0 0.00 0.00 0.00 89 1013.2
20260903084547 76 190 0.0 4.0 0.00 0.00 0.00 88 1013.2
20260903084019 76 104 1.0 4.0 0.00 0.00 0.00 88 1013.2
20260903083524 76 0 0.0 5.0 0.00 0.00 0.00 87 1013.2
20260903083048 76 84 2.0 5.0 0.00 0.00 0.00 87 1013.2
20260903082525 77 182 1.0 6.0 0.00 0.00 0.00 86 1013.3
20260903082024 77 186 1.0 7.0 0.00 0.00 0.00 86 1013.3
20260903081540 77 148 3.0 8.0 0.00 0.00 0.00 85 1013.3
20260903081112 77 82 2.0 8.0 0.00 0.00 0.00 84 1013.3
20260903080524 77 160 3.0 8.0 0.00 0.00 0.00 84 1013.2
20260903080050 77 76 1.0 7.0 0.00 0.00 0.00 83 1013.2
20260903075523 78 159 3.0 7.0 0.00 0.00 0.00 82 1013.2
20260903075022 78 179 2.0 8.0 0.00 0.00 0.00 81 1013.2
20260903074551 79 120 3.0 11.0 0.00 0.00 0.00 80 1013.2
20260903074025 79 151 5.0 12.0 0.00 0.00 0.00 79 1013.0
20260903073524 79 144 6.0 12.0 0.00 0.00 0.00 78 1013.0
20260903073046 79 173 4.0 12.0 0.00 0.00 0.00 77 1013.0
20260903072524 80 103 4.0 11.0 0.00 0.00 0.00 76 1013.2
20260903072027 80 142 4.0 11.0 0.00 0.00 0.00 76 1013.2
20260903071544 80 109 4.0 10.0 0.00 0.00 0.00 76 1013.2
20260903071022 80 87 2.0 10.0 0.00 0.00 0.00 75 1013.2
20260903070523 80 91 4.0 10.0 0.00 0.00 0.00 76 1013.2
20260903070042 80 148 2.0 10.0 0.00 0.00 0.00 76 1013.3
20260903065525 80 178 5.0 13.0 0.00 0.00 0.00 76 1013.2
20260903065021 80 82 5.0 13.0 0.00 0.00 0.00 76 1013.1
20260903064547 80 102 5.0 12.0 0.00 0.00 0.00 75 1013.0
20260903064024 80 90 3.0 8.0 0.00 0.00 0.00 75 1013.1
20260903063527 80 67 2.0 11.0 0.00 0.00 0.00 75 1013.3
20260903063057 80 136 3.0 11.0 0.00 0.00 0.00 75 1013.3
20260903062524 80 157 3.0 10.0 0.00 0.00 0.00 75 1013.3
20260903062024 80 201 3.0 20.0 0.00 0.00 0.00 75 1013.2
20260903061544 80 138 3.0 20.0 0.00 0.00 0.00 75 1013.3
20260903061027 80 183 3.0 11.0 0.00 0.00 0.00 75 1013.3
20260903060525 80 128 3.0 11.0 0.00 0.00 0.00 74 1013.5
20260903060049 80 171 3.0 10.0 0.00 0.00 0.00 74 1013.6
20260903055524 80 143 4.0 11.0 0.00 0.00 0.00 74 1013.6
20260903055027 80 70 4.0 11.0 0.00 0.00 0.00 74 1013.6
20260903054545 80 113 4.0 11.0 0.00 0.00 0.00 73 1013.8
20260903054024 80 125 3.0 11.0 0.00 0.00 0.00 73 1013.8
20260903053526 81 169 4.0 11.0 0.00 0.00 0.00 72 1013.8
20260903053103 81 116 5.0 12.0 0.00 0.00 0.00 72 1013.8
20260903052525 81 119 5.0 14.0 0.00 0.00 0.00 72 1013.8
20260903052025 81 144 5.0 14.0 0.00 0.00 0.00 71 1013.8
20260903051548 81 132 4.0 13.0 0.00 0.00 0.00 71 1014.0
20260903051021 81 98 5.0 13.0 0.00 0.00 0.00 70 1014.0
20260903050525 81 165 5.0 13.0 0.00 0.00 0.00 70 1013.9
20260903050058 82 138 4.0 18.0 0.00 0.00 0.00 69 1013.9
20260903045526 82 166 6.0 18.0 0.00 0.00 0.00 69 1013.9
20260903045023 82 89 7.0 16.0 0.00 0.00 0.00 68 1013.9
20260903044555 82 175 4.0 15.0 0.00 0.00 0.00 68 1013.8
20260903044024 83 187 4.0 14.0 0.00 0.00 0.00 67 1013.7
20260903043527 83 128 5.0 13.0 0.00 0.00 0.00 67 1013.7
20260903043039 83 151 4.0 11.0 0.00 0.00 0.00 66 1013.7
20260903042525 83 114 5.0 11.0 0.00 0.00 0.00 66 1013.8
20260903042027 83 167 5.0 11.0 0.00 0.00 0.00 66 1013.9
20260903041552 83 52 3.0 9.0 0.00 0.00 0.00 65 1013.9
20260903041023 84 90 3.0 9.0 0.00 0.00 0.00 65 1013.7
20260903040521 84 129 3.0 9.0 0.00 0.00 0.00 64 1013.8
20260903040046 84 191 2.0 10.0 0.00 0.00 0.00 64 1014.0
20260903035526 84 169 2.0 10.0 0.00 0.00 0.00 64 1014.0
20260903035024 84 163 3.0 11.0 0.00 0.00 0.00 63 1013.9
20260903034542 84 130 2.0 11.0 0.00 0.00 0.00 63 1013.9
20260903034022 85 102 5.0 11.0 0.00 0.00 0.00 62 1013.9
20260903033522 85 152 4.0 12.0 0.00 0.00 0.00 62 1013.9
20260903033046 85 144 3.0 12.0 0.00 0.00 0.00 61 1013.8
20260903032525 85 169 4.0 12.0 0.00 0.00 0.00 61 1013.9
20260903032026 85 149 4.0 11.0 0.00 0.00 0.00 60 1013.8
20260903031544 85 138 4.0 10.0 0.00 0.00 0.00 60 1013.9
20260903031025 86 163 3.0 12.0 0.00 0.00 0.00 59 1013.8
20260903030525 86 140 4.0 12.0 0.00 0.00 0.00 59 1013.8
20260903030042 86 159 4.0 11.0 0.00 0.00 0.00 58 1013.7
20260903025524 87 137 3.0 10.0 0.00 0.00 0.00 58 1013.8
20260903025024 87 146 3.0 11.0 0.00 0.00 0.00 58 1013.6
20260903024545 87 202 5.0 14.0 0.00 0.00 0.00 57 1013.7
20260903024024 88 126 5.0 14.0 0.00 0.00 0.00 57 1013.7
20260903023523 88 139 2.0 13.0 0.00 0.00 0.00 56 1013.7
20260903023043 88 188 4.0 13.0 0.00 0.00 0.00 55 1013.6
20260903022525 89 170 2.0 9.0 0.00 0.00 0.00 55 1013.4
20260903022022 89 190 3.0 12.0 0.00 0.00 0.00 54 1013.2
20260903021550 89 168 3.0 12.0 0.00 0.00 0.00 53 1013.2
20260903021024 90 189 2.0 11.0 0.00 0.00 0.00 52 1013.2
20260903020524 90 190 4.0 11.0 0.00 0.00 0.00 51 1013.0
20260903020043 90 150 5.0 11.0 0.00 0.00 0.00 50 1012.9
20260903015524 90 112 4.0 10.0 0.00 0.00 0.00 50 1012.9
20260903015023 90 123 3.0 11.0 0.00 0.00 0.00 49 1012.9
20260903014547 91 162 3.0 11.0 0.00 0.00 0.00 49 1012.7
20260903014023 91 169 4.0 11.0 0.00 0.00 0.00 49 1012.6
20260903013522 91 151 2.0 9.0 0.00 0.00 0.00 49 1012.5
20260903013040 91 180 3.0 10.0 0.00 0.00 0.00 48 1012.5
20260903012528 91 134 4.0 10.0 0.00 0.00 0.00 48 1012.4
20260903012028 91 161 2.0 12.0 0.00 0.00 0.00 48 1012.4
20260903011546 92 144 3.0 12.0 0.00 0.00 0.00 48 1012.3
20260903011023 92 193 2.0 9.0 0.00 0.00 0.00 48 1012.4
20260903010520 92 165 2.0 8.0 0.00 0.00 0.00 48 1012.3
20260903010044 92 128 4.0 11.0 0.00 0.00 0.00 48 1012.2
20260903005522 92 206 3.0 11.0 0.00 0.00 0.00 48 1012.2
20260903005022 92 123 4.0 11.0 0.00 0.00 0.00 47 1012.2
20260903004540 93 160 3.0 7.0 0.00 0.00 0.00 47 1012.2
20260903004024 93 106 2.0 11.0 0.00 0.00 0.00 47 1012.2
20260903003528 93 145 4.0 11.0 0.00 0.00 0.00 47 1012.2
20260903003047 93 84 3.0 12.0 0.00 0.00 0.00 47 1012.1
20260903002525 93 148 5.0 12.0 0.00 0.00 0.00 47 1012.1